Location: Pl�tzky
(52.0521°N, 11.8020°E)
Time: 05:41:32
(UTC+00:00)

N. Korean satellite - Visible Passes

Search period start: 22 January 2020 00:00
Search period end: 01 February 2020 00:00
Orbit: 454 x 507 km, 97.2° (Epoch: 21 January)

Date Brightness Start Highest point End Pass type
(mag) Time Alt. Az. Time Alt. Az. Time Alt. Az.
22 Jan 10.0 03:54:11 10° ENE 03:55:25 11° E 03:56:40 10° ESE visible
22 Jan 6.4 05:25:43 10° N 05:29:15 70° WNW 05:32:48 10° SSW visible
23 Jan 7.1 05:00:14 10° NNE 05:03:45 59° E 05:07:17 10° S visible
23 Jan 9.8 17:16:06 10° WSW 17:18:00 14° W 17:19:56 10° NW visible
24 Jan 8.5 04:34:58 10° NNE 04:38:09 31° E 04:41:23 10° SSE visible
24 Jan 7.6 06:08:31 10° N 06:11:28 25° WNW 06:14:27 10° WSW visible
24 Jan 9.0 16:49:23 10° SSW 16:52:18 25° W 16:55:14 10° NW visible
25 Jan 9.5 04:10:02 10° NE 04:12:28 17° E 04:14:56 10° SE visible
25 Jan 6.8 05:42:40 10° N 05:46:05 45° WNW 05:49:32 10° SW visible
25 Jan 7.6 16:23:20 10° S 16:26:40 49° W 16:30:02 10° NNW visible
26 Jan 6.5 05:17:03 10° NNE 05:20:38 87° WNW 05:24:15 10° SSW visible
27 Jan 7.6 04:51:37 10° NNE 04:55:06 47° E 04:58:37 10° S visible
27 Jan 9.7 17:06:56 10° SW 17:09:17 17° W 17:11:40 10° NW visible
28 Jan 8.9 04:26:26 10° NE 04:29:28 25° E 04:32:32 10° SSE visible
28 Jan 7.3 05:59:42 10° N 06:02:53 30° WNW 06:06:05 10° SW visible
28 Jan 8.6 16:40:30 10° SSW 16:43:35 31° W 16:46:44 10° NNW visible
29 Jan 9.8 04:01:42 10° NE 04:03:46 14° E 04:05:50 10° SE visible
29 Jan 6.6 05:33:57 10° N 05:37:29 56° WNW 05:41:03 10° SSW visible
30 Jan 6.7 05:08:23 10° NNE 05:12:00 75° ESE 05:15:39 10° S visible
30 Jan 10.1 17:25:02 10° WSW 17:26:18 12° W 17:27:35 10° WNW visible
31 Jan 8.1 04:43:00 10° NNE 04:46:25 38° E 04:49:52 10° SSE visible
31 Jan 7.8 06:16:50 10° NNW 06:19:38 21° WNW 06:22:27 10° WSW visible
31 Jan 9.5 16:57:51 10° SW 17:00:32 21° W 17:03:16 10° NW visible
